Year,Month,Day,Hour,Minute,Value (Times are PST for windspeed in km/hr)
2011,07,30,00,00,0.20
2011,07,30,00,05,0.10
2011,07,30,00,06,0.00
2011,07,30,00,07,0.00
2011,07,30,00,08,0.00
2011,07,30,00,09,0.00
2011,07,30,00,10,0.00
2011,07,30,00,11,0.00
2011,07,30,00,12,0.00
2011,07,30,00,13,0.00
2011,07,30,00,14,0.00
2011,07,30,00,15,0.00
2011,07,30,00,16,0.00
2011,07,30,00,17,0.00
2011,07,30,00,18,0.00
2011,07,30,00,19,0.00
2011,07,30,00,20,0.00
2011,07,30,00,21,0.00
2011,07,30,00,22,0.00
2011,07,30,00,23,0.00
2011,07,30,00,24,0.00
2011,07,30,00,25,0.00
2011,07,30,00,26,0.00
2011,07,30,00,27,0.00
2011,07,30,00,28,0.00
2011,07,30,00,29,0.00
2011,07,30,00,30,0.00
2011,07,30,00,31,0.00
2011,07,30,00,32,0.00
2011,07,30,00,33,0.00
2011,07,30,00,34,0.00
2011,07,30,00,35,0.00
2011,07,30,00,36,0.00
2011,07,30,00,37,0.00
2011,07,30,00,38,0.20
2011,07,30,00,39,2.10
2011,07,30,00,40,1.50
2011,07,30,00,41,0.10
2011,07,30,00,42,0.10
2011,07,30,00,43,0.00
2011,07,30,00,44,0.00
2011,07,30,00,45,0.00
2011,07,30,00,46,0.00
2011,07,30,00,47,0.10
2011,07,30,00,48,0.00
2011,07,30,00,49,0.00
2011,07,30,00,50,0.10
2011,07,30,00,51,1.20
2011,07,30,00,52,0.00
2011,07,30,00,53,0.00
2011,07,30,00,54,0.10
2011,07,30,00,55,0.00
2011,07,30,00,56,0.00
2011,07,30,00,57,0.00
2011,07,30,00,58,0.00
2011,07,30,00,59,0.00
2011,07,30,01,00,0.00
2011,07,30,01,01,0.10
2011,07,30,01,02,0.00
2011,07,30,01,03,0.10
2011,07,30,01,04,1.10
2011,07,30,01,05,2.50
2011,07,30,01,06,2.30
2011,07,30,01,07,1.50
2011,07,30,01,08,0.20
2011,07,30,01,09,0.00
2011,07,30,01,10,0.00
2011,07,30,01,11,0.00
2011,07,30,01,12,0.00
2011,07,30,01,13,0.00
2011,07,30,01,14,0.00
2011,07,30,01,15,0.00
2011,07,30,01,16,0.00
2011,07,30,01,17,0.00
2011,07,30,01,18,0.00
2011,07,30,01,19,0.00
2011,07,30,01,20,0.00
2011,07,30,01,21,0.00
2011,07,30,01,22,0.00
2011,07,30,01,23,0.00
2011,07,30,01,24,0.00
2011,07,30,01,25,0.00
2011,07,30,01,26,0.00
2011,07,30,01,27,0.20
2011,07,30,01,28,0.20
2011,07,30,01,29,2.20
2011,07,30,01,30,1.20
2011,07,30,01,31,2.30
2011,07,30,01,32,1.60
2011,07,30,01,33,2.80
2011,07,30,01,34,2.30
2011,07,30,01,35,3.50
2011,07,30,01,36,3.50
2011,07,30,01,37,4.70
2011,07,30,01,38,3.40
2011,07,30,01,39,3.40
2011,07,30,01,40,2.60
2011,07,30,01,41,2.20
2011,07,30,01,42,0.20
2011,07,30,01,43,0.20
2011,07,30,01,44,0.00
2011,07,30,01,45,0.00
2011,07,30,01,46,0.00
2011,07,30,01,47,2.30
2011,07,30,01,48,1.70
2011,07,30,01,49,0.10
2011,07,30,01,50,0.00
2011,07,30,01,51,0.00
2011,07,30,01,52,0.00
2011,07,30,01,53,0.00
2011,07,30,01,54,0.00
2011,07,30,01,55,0.00
2011,07,30,01,56,0.00
2011,07,30,01,57,0.00
2011,07,30,01,58,0.00
2011,07,30,01,59,0.00
2011,07,30,02,00,0.00
2011,07,30,02,01,0.00
2011,07,30,02,02,0.00
2011,07,30,02,03,0.00
2011,07,30,02,04,0.00
2011,07,30,02,05,0.00
2011,07,30,02,06,0.00
2011,07,30,02,07,0.00
2011,07,30,02,08,0.00
2011,07,30,02,09,0.00
2011,07,30,02,10,0.00
2011,07,30,02,11,0.00
2011,07,30,02,12,0.60
2011,07,30,02,13,2.30
2011,07,30,02,14,2.50
2011,07,30,02,15,1.40
2011,07,30,02,16,0.20
2011,07,30,02,17,1.60
2011,07,30,02,18,0.70
2011,07,30,02,19,0.00
2011,07,30,02,20,0.00
2011,07,30,02,21,0.00
2011,07,30,02,22,0.10
2011,07,30,02,23,0.00
2011,07,30,02,24,0.00
2011,07,30,02,25,0.00
2011,07,30,02,26,0.00
2011,07,30,02,27,0.00
2011,07,30,02,28,0.00
2011,07,30,02,29,0.00
2011,07,30,02,30,0.00
2011,07,30,02,31,0.10
2011,07,30,02,32,0.00
2011,07,30,02,33,0.00
2011,07,30,02,34,0.00
2011,07,30,02,35,0.00
2011,07,30,02,36,0.00
2011,07,30,02,37,0.00
2011,07,30,02,38,0.00
2011,07,30,02,39,0.00
2011,07,30,02,40,0.00
2011,07,30,02,41,0.00
2011,07,30,02,42,0.10
2011,07,30,02,43,0.00
2011,07,30,02,44,1.40
2011,07,30,02,45,2.20
2011,07,30,02,46,0.40
2011,07,30,02,47,0.20
2011,07,30,02,48,0.00
2011,07,30,02,49,0.10
2011,07,30,02,50,1.60
2011,07,30,02,51,1.40
2011,07,30,02,52,0.00
2011,07,30,02,53,0.00
2011,07,30,02,54,0.10
2011,07,30,02,55,0.00
2011,07,30,02,56,0.00
2011,07,30,02,57,0.00
2011,07,30,02,58,0.00
2011,07,30,02,59,0.00
2011,07,30,03,00,0.00
2011,07,30,03,01,0.00
2011,07,30,03,02,0.00
2011,07,30,03,03,0.00
2011,07,30,03,04,1.60
2011,07,30,03,05,2.20
2011,07,30,03,06,2.20
2011,07,30,03,07,1.50
2011,07,30,03,08,0.00
2011,07,30,03,09,0.00
2011,07,30,03,10,0.00
2011,07,30,03,11,0.00
2011,07,30,03,12,0.00
2011,07,30,03,13,0.00
2011,07,30,03,14,0.00
2011,07,30,03,15,0.00
2011,07,30,03,16,0.00
2011,07,30,03,17,0.00
2011,07,30,03,18,0.00
2011,07,30,03,19,0.00
2011,07,30,03,20,0.00
2011,07,30,03,21,0.00
2011,07,30,03,22,0.00
2011,07,30,03,23,0.00
2011,07,30,03,24,0.30
2011,07,30,03,25,0.00
2011,07,30,03,26,0.80
2011,07,30,03,27,0.90
2011,07,30,03,28,0.00
2011,07,30,03,29,1.30
2011,07,30,03,30,2.20
2011,07,30,03,31,2.70
2011,07,30,03,32,2.40
2011,07,30,03,33,3.00
2011,07,30,03,34,2.20
2011,07,30,03,35,0.10
2011,07,30,03,36,0.00
2011,07,30,03,37,0.00
2011,07,30,03,38,0.00
2011,07,30,03,39,0.00
2011,07,30,03,40,0.00
2011,07,30,03,41,0.00
2011,07,30,03,42,0.40
2011,07,30,03,43,2.00
2011,07,30,03,44,2.20
2011,07,30,03,45,1.90
2011,07,30,03,46,1.30
2011,07,30,03,47,0.00
2011,07,30,03,48,0.00
2011,07,30,03,49,0.10
2011,07,30,03,50,0.40
2011,07,30,03,51,2.40
2011,07,30,03,52,2.20
2011,07,30,03,53,2.10
2011,07,30,03,54,1.90
2011,07,30,03,55,1.10
2011,07,30,03,56,0.00
2011,07,30,03,57,0.10
2011,07,30,03,58,0.10
2011,07,30,03,59,0.00
2011,07,30,04,00,0.00
2011,07,30,04,01,0.00
2011,07,30,04,02,0.00
2011,07,30,04,03,1.90
2011,07,30,04,04,2.50
2011,07,30,04,05,2.10
2011,07,30,04,06,2.30
2011,07,30,04,07,2.40
2011,07,30,04,08,2.40
2011,07,30,04,09,2.40
2011,07,30,04,10,1.30
2011,07,30,04,11,0.00
2011,07,30,04,12,1.80
2011,07,30,04,13,2.20
2011,07,30,04,14,1.00
2011,07,30,04,15,0.00
2011,07,30,04,16,0.00
2011,07,30,04,17,0.00
2011,07,30,04,18,0.00
2011,07,30,04,19,0.00
2011,07,30,04,20,1.60
2011,07,30,04,21,2.80
2011,07,30,04,22,2.50
2011,07,30,04,23,2.50
2011,07,30,04,24,2.30
2011,07,30,04,25,1.60
2011,07,30,04,26,0.20
2011,07,30,04,27,0.00
2011,07,30,04,28,0.00
2011,07,30,04,29,0.00
2011,07,30,04,30,0.00
2011,07,30,04,31,0.00
2011,07,30,04,32,0.00
2011,07,30,04,33,0.00
2011,07,30,04,34,0.00
2011,07,30,04,35,0.00
2011,07,30,04,36,1.20
2011,07,30,04,37,1.40
2011,07,30,04,38,0.00
2011,07,30,04,39,1.30
2011,07,30,04,40,2.20
2011,07,30,04,41,2.20
2011,07,30,04,42,1.50
2011,07,30,04,43,0.10
2011,07,30,04,44,0.10
2011,07,30,04,45,0.00
2011,07,30,04,46,0.20
2011,07,30,04,47,0.00
2011,07,30,04,48,0.00
2011,07,30,04,49,0.00
2011,07,30,04,50,0.00
2011,07,30,04,51,0.00
2011,07,30,04,52,0.00
2011,07,30,04,53,0.00
2011,07,30,04,54,0.00
2011,07,30,04,55,0.00
2011,07,30,04,56,0.00
2011,07,30,04,57,0.00
2011,07,30,04,58,0.00
2011,07,30,04,59,1.10
2011,07,30,05,00,2.90
2011,07,30,05,01,2.60
2011,07,30,05,02,2.20
2011,07,30,05,03,2.20
2011,07,30,05,04,2.40
2011,07,30,05,05,1.90
2011,07,30,05,06,2.00
2011,07,30,05,07,2.30
2011,07,30,05,08,2.00
2011,07,30,05,09,1.90
2011,07,30,05,10,1.00
2011,07,30,05,11,0.00
2011,07,30,05,12,0.00
2011,07,30,05,13,0.00
2011,07,30,05,14,0.20
2011,07,30,05,15,1.00
2011,07,30,05,16,2.40
2011,07,30,05,17,0.70
2011,07,30,05,18,0.10
2011,07,30,05,19,0.20
2011,07,30,05,20,2.10
2011,07,30,05,21,2.60
2011,07,30,05,22,2.30
2011,07,30,05,23,2.10
2011,07,30,05,24,1.90
2011,07,30,05,25,0.20
2011,07,30,05,26,0.80
2011,07,30,05,27,1.50
2011,07,30,05,28,0.00
2011,07,30,05,29,0.00
2011,07,30,05,30,0.00
2011,07,30,05,31,0.00
2011,07,30,05,32,0.00
2011,07,30,05,33,0.00
2011,07,30,05,34,0.00
2011,07,30,05,35,0.20
2011,07,30,05,36,2.30
2011,07,30,05,37,2.20
2011,07,30,05,38,2.40
2011,07,30,05,39,2.20
2011,07,30,05,40,2.10
2011,07,30,05,41,1.80
2011,07,30,05,42,1.00
2011,07,30,05,43,0.00
2011,07,30,05,44,0.00
2011,07,30,05,45,0.10
2011,07,30,05,46,0.00
2011,07,30,05,47,2.80
2011,07,30,05,48,2.20
2011,07,30,05,49,0.40
2011,07,30,05,50,0.10
2011,07,30,05,51,0.00
2011,07,30,05,52,0.00
2011,07,30,05,53,0.00
2011,07,30,05,54,0.80
2011,07,30,05,55,1.90
2011,07,30,05,56,1.50
2011,07,30,05,57,0.50
2011,07,30,05,58,0.00
2011,07,30,05,59,0.00
2011,07,30,06,00,0.00
2011,07,30,06,01,0.10
2011,07,30,06,02,1.90
2011,07,30,06,03,2.20
2011,07,30,06,04,2.10
2011,07,30,06,05,0.00
2011,07,30,06,06,0.00
2011,07,30,06,07,0.10
2011,07,30,06,08,0.00
2011,07,30,06,09,0.00
2011,07,30,06,10,0.00
2011,07,30,06,11,0.00
2011,07,30,06,12,0.00
2011,07,30,06,13,0.00
2011,07,30,06,14,1.30
2011,07,30,06,15,0.20
2011,07,30,06,16,0.00
2011,07,30,06,17,0.00
2011,07,30,06,18,0.00
2011,07,30,06,19,0.00
2011,07,30,06,20,0.00
2011,07,30,06,21,0.00
2011,07,30,06,22,0.00
2011,07,30,06,23,0.00
2011,07,30,06,24,0.00
2011,07,30,06,25,0.00
2011,07,30,06,26,0.00
2011,07,30,06,27,0.00
2011,07,30,06,28,0.00
2011,07,30,06,29,0.00
2011,07,30,06,30,0.00
2011,07,30,06,31,0.00
2011,07,30,06,32,0.10
2011,07,30,06,33,1.90
2011,07,30,06,34,0.00
2011,07,30,06,35,0.00
2011,07,30,06,36,0.20
2011,07,30,06,37,1.70
2011,07,30,06,38,2.60
2011,07,30,06,39,0.10
2011,07,30,06,40,0.20
2011,07,30,06,41,0.30
2011,07,30,06,42,3.80
2011,07,30,06,43,0.80
2011,07,30,06,44,0.00
2011,07,30,06,45,2.20
2011,07,30,06,46,0.20
2011,07,30,06,47,0.10
2011,07,30,06,48,0.00
2011,07,30,06,49,0.00
2011,07,30,06,50,0.00
2011,07,30,06,51,0.20
2011,07,30,06,52,0.00
2011,07,30,06,53,0.00
2011,07,30,06,54,0.00
2011,07,30,06,55,0.10
2011,07,30,06,56,0.00
2011,07,30,06,57,0.00
2011,07,30,06,58,0.00
2011,07,30,06,59,0.00
2011,07,30,07,00,0.00
2011,07,30,07,01,0.00
2011,07,30,07,02,0.00
2011,07,30,07,03,0.00
2011,07,30,07,04,0.00
2011,07,30,07,05,0.00
2011,07,30,07,06,0.00
2011,07,30,07,07,0.10
2011,07,30,07,08,0.00
2011,07,30,07,09,0.00
2011,07,30,07,10,0.00
2011,07,30,07,11,0.10
2011,07,30,07,12,0.00
2011,07,30,07,13,0.00
2011,07,30,07,14,1.30
2011,07,30,07,15,4.70
2011,07,30,07,16,1.30
2011,07,30,07,17,5.00
2011,07,30,07,18,0.60
2011,07,30,07,19,2.20
2011,07,30,07,20,0.10
2011,07,30,07,21,0.20
2011,07,30,07,22,0.20
2011,07,30,07,23,1.50
2011,07,30,07,24,0.70
2011,07,30,07,25,0.00
2011,07,30,07,26,0.20
2011,07,30,07,27,3.20
2011,07,30,07,28,0.20
2011,07,30,07,29,0.20
2011,07,30,07,30,0.00
2011,07,30,07,31,0.00
2011,07,30,07,32,1.00
2011,07,30,07,33,0.30
2011,07,30,07,34,0.10
2011,07,30,07,35,0.00
2011,07,30,07,36,0.00
2011,07,30,07,37,0.20
2011,07,30,07,38,0.20
2011,07,30,07,39,0.20
2011,07,30,07,40,2.20
2011,07,30,07,41,0.00
2011,07,30,07,42,0.90
2011,07,30,07,43,3.70
2011,07,30,07,44,0.80
2011,07,30,07,45,0.40
2011,07,30,07,46,0.10
2011,07,30,07,47,0.00
2011,07,30,07,48,0.00
2011,07,30,07,49,0.00
2011,07,30,07,50,0.20
2011,07,30,07,51,2.20
2011,07,30,07,52,1.50
2011,07,30,07,53,2.00
2011,07,30,07,54,4.30
2011,07,30,07,55,0.70
2011,07,30,07,56,0.10
2011,07,30,07,57,0.00
2011,07,30,07,58,0.00
2011,07,30,07,59,0.10
2011,07,30,08,00,0.50
2011,07,30,08,01,3.00
2011,07,30,08,02,7.40
2011,07,30,08,03,3.50
2011,07,30,08,04,2.80
2011,07,30,08,05,2.60
2011,07,30,08,06,4.10
2011,07,30,08,07,5.30
2011,07,30,08,08,3.70
2011,07,30,08,09,4.70
2011,07,30,08,10,4.00
2011,07,30,08,11,9.70
2011,07,30,08,12,7.60
2011,07,30,08,13,6.70
2011,07,30,08,14,8.10
2011,07,30,08,15,1.40
2011,07,30,08,16,5.10
2011,07,30,08,17,7.30
2011,07,30,08,18,5.70
2011,07,30,08,19,5.40
2011,07,30,08,20,5.00
2011,07,30,08,21,9.30
2011,07,30,08,22,10.80
2011,07,30,08,23,11.10
2011,07,30,08,24,12.50
2011,07,30,08,25,13.00
2011,07,30,08,26,6.90
2011,07,30,08,27,9.50
2011,07,30,08,28,10.10
2011,07,30,08,29,10.70
2011,07,30,08,30,10.80
2011,07,30,08,31,8.50
2011,07,30,08,32,6.90
2011,07,30,08,33,4.30
2011,07,30,08,34,11.50
2011,07,30,08,35,8.40
2011,07,30,08,36,7.40
2011,07,30,08,37,11.90
2011,07,30,08,38,13.60
2011,07,30,08,39,8.70
2011,07,30,08,40,5.90
2011,07,30,08,41,7.20
2011,07,30,08,42,12.30
2011,07,30,08,43,12.00
2011,07,30,08,44,14.90
2011,07,30,08,45,12.80
2011,07,30,08,46,12.10
2011,07,30,08,47,6.40
2011,07,30,08,48,10.40
2011,07,30,08,49,8.40
2011,07,30,08,50,1.60
2011,07,30,08,51,6.40
2011,07,30,08,52,5.60
2011,07,30,08,53,3.20
2011,07,30,08,54,8.30
2011,07,30,08,55,8.60
2011,07,30,08,56,10.80
2011,07,30,08,57,7.70
2011,07,30,08,58,12.00
2011,07,30,08,59,8.00
2011,07,30,09,00,5.20
2011,07,30,09,01,7.10
2011,07,30,09,02,20.90
2011,07,30,09,03,12.10
2011,07,30,09,04,18.50
2011,07,30,09,05,17.20
2011,07,30,09,06,12.00
2011,07,30,09,07,19.70
2011,07,30,09,08,10.70
2011,07,30,09,09,12.00
2011,07,30,09,10,12.00
2011,07,30,09,11,16.90
2011,07,30,09,12,14.20
2011,07,30,09,13,16.20
2011,07,30,09,14,16.30
2011,07,30,09,15,11.10
2011,07,30,09,16,17.10
2011,07,30,09,17,13.80
2011,07,30,09,18,12.50
2011,07,30,09,19,13.00
2011,07,30,09,20,11.90
2011,07,30,09,21,8.90
2011,07,30,09,22,15.30
2011,07,30,09,23,19.60
2011,07,30,09,24,14.90
2011,07,30,09,25,12.90
2011,07,30,09,26,11.90
2011,07,30,09,27,17.90
2011,07,30,09,28,12.20
2011,07,30,09,29,15.60
2011,07,30,09,30,10.70
2011,07,30,09,31,9.20
2011,07,30,09,32,8.70
2011,07,30,09,33,11.40
2011,07,30,09,34,11.00
2011,07,30,09,35,10.00
2011,07,30,09,36,8.60
2011,07,30,09,37,14.20
2011,07,30,09,38,10.90
2011,07,30,09,39,10.20
2011,07,30,09,40,11.80
2011,07,30,09,41,11.80
2011,07,30,09,42,14.60
2011,07,30,09,43,14.60
2011,07,30,09,44,13.80
2011,07,30,09,45,10.90
2011,07,30,09,46,15.80
2011,07,30,09,47,9.20
2011,07,30,09,48,16.50
2011,07,30,09,49,17.70
2011,07,30,09,50,13.00
2011,07,30,09,51,19.10
2011,07,30,09,52,13.30
2011,07,30,09,53,12.00
2011,07,30,09,54,14.60
2011,07,30,09,55,18.80
2011,07,30,09,56,15.60
2011,07,30,09,57,10.80
2011,07,30,09,58,14.00
2011,07,30,09,59,9.90
2011,07,30,10,00,13.20
2011,07,30,10,01,14.80
2011,07,30,10,02,25.20
2011,07,30,10,03,13.70
2011,07,30,10,04,17.70
2011,07,30,10,05,13.60
2011,07,30,10,06,17.60
2011,07,30,10,07,12.30
2011,07,30,10,08,12.50
2011,07,30,10,09,17.40
2011,07,30,10,10,14.60
2011,07,30,10,11,14.20
2011,07,30,10,12,14.70
2011,07,30,10,13,13.50
2011,07,30,10,14,12.00
2011,07,30,10,15,13.20
2011,07,30,10,16,16.30
2011,07,30,10,17,9.60
2011,07,30,10,18,13.30
2011,07,30,10,19,14.80
2011,07,30,10,20,11.80
2011,07,30,10,21,17.80
2011,07,30,10,22,13.80
2011,07,30,10,23,17.00
2011,07,30,10,24,15.50
2011,07,30,10,25,19.00
2011,07,30,10,26,16.50
2011,07,30,10,27,17.70
2011,07,30,10,28,14.60
2011,07,30,10,29,17.00
2011,07,30,10,30,8.40
2011,07,30,10,31,12.80
2011,07,30,10,32,15.10
2011,07,30,10,33,12.20
2011,07,30,10,34,22.70
2011,07,30,10,35,9.70
2011,07,30,10,36,17.70
2011,07,30,10,37,9.30
2011,07,30,10,38,13.20
2011,07,30,10,39,13.60
2011,07,30,10,40,13.50
2011,07,30,10,41,12.20
2011,07,30,10,42,15.50
2011,07,30,10,43,9.70
2011,07,30,10,44,11.50
2011,07,30,10,45,16.70
2011,07,30,10,46,9.40
2011,07,30,10,47,12.90
2011,07,30,10,48,13.10
2011,07,30,10,49,15.10
2011,07,30,10,50,11.40
2011,07,30,10,51,15.90
2011,07,30,10,52,12.60
2011,07,30,10,53,13.80
2011,07,30,10,54,8.90
2011,07,30,10,55,10.90
2011,07,30,10,56,11.30
2011,07,30,10,57,14.00
2011,07,30,10,58,13.30
2011,07,30,10,59,8.10
2011,07,30,11,00,11.40
2011,07,30,11,01,6.60
2011,07,30,11,02,9.10
2011,07,30,11,03,6.10
2011,07,30,11,04,11.90
2011,07,30,11,05,11.50
2011,07,30,11,06,11.00
2011,07,30,11,07,13.50
2011,07,30,11,08,13.00
2011,07,30,11,09,18.40
2011,07,30,11,10,16.70
2011,07,30,11,11,12.60
2011,07,30,11,12,12.80
2011,07,30,11,13,17.60
2011,07,30,11,14,14.10
2011,07,30,11,15,14.10
2011,07,30,11,16,15.50
2011,07,30,11,17,17.10
2011,07,30,11,18,15.40
2011,07,30,11,19,15.70
2011,07,30,11,20,11.70
2011,07,30,11,21,9.30
2011,07,30,11,22,11.10
2011,07,30,11,23,16.70
2011,07,30,11,24,18.70
2011,07,30,11,25,13.50
2011,07,30,11,26,6.40
2011,07,30,11,27,13.00
2011,07,30,11,28,9.90
2011,07,30,11,29,15.00
2011,07,30,11,30,11.30
2011,07,30,11,31,8.90
2011,07,30,11,32,10.80
2011,07,30,11,33,14.30
2011,07,30,11,34,16.20
2011,07,30,11,35,15.00
2011,07,30,11,36,13.90
2011,07,30,11,37,15.70
2011,07,30,11,38,19.00
2011,07,30,11,39,21.20
2011,07,30,11,40,24.50
2011,07,30,11,41,23.00
2011,07,30,11,42,17.20
2011,07,30,11,43,23.30
2011,07,30,11,44,21.10
2011,07,30,11,45,22.50
2011,07,30,11,46,17.10
2011,07,30,11,47,18.20
2011,07,30,11,48,23.00
2011,07,30,11,49,14.20
2011,07,30,11,50,12.60
2011,07,30,11,51,18.30
2011,07,30,11,52,20.60
2011,07,30,11,53,19.80
2011,07,30,11,54,21.00
2011,07,30,11,55,24.10
2011,07,30,11,56,23.40
2011,07,30,11,57,16.60
2011,07,30,11,58,22.80
2011,07,30,11,59,18.10
2011,07,30,12,00,14.30
2011,07,30,12,01,18.60
2011,07,30,12,02,11.70
2011,07,30,12,03,12.10
2011,07,30,12,04,16.40
2011,07,30,12,05,15.90
2011,07,30,12,06,15.50
2011,07,30,12,07,16.90
2011,07,30,12,08,15.10
2011,07,30,12,09,13.60
2011,07,30,12,10,12.20
2011,07,30,12,11,15.30
2011,07,30,12,12,17.30
2011,07,30,12,13,6.10
2011,07,30,12,14,12.50
2011,07,30,12,15,13.30
2011,07,30,12,16,16.60
2011,07,30,12,17,9.80
2011,07,30,12,18,16.90
2011,07,30,12,19,14.70
2011,07,30,12,20,17.50
2011,07,30,12,21,19.00
2011,07,30,12,22,15.20
2011,07,30,12,23,16.60
2011,07,30,12,24,15.00
2011,07,30,12,25,15.50
2011,07,30,12,26,10.10
2011,07,30,12,27,10.40
2011,07,30,12,28,10.00
2011,07,30,12,29,7.60
2011,07,30,12,30,6.40
2011,07,30,12,31,5.80
2011,07,30,12,32,5.70
2011,07,30,12,33,8.20
2011,07,30,12,34,13.30
2011,07,30,12,35,15.40
2011,07,30,12,36,10.60
2011,07,30,12,37,12.40
2011,07,30,12,38,10.20
2011,07,30,12,39,11.30
2011,07,30,12,40,12.10
2011,07,30,12,41,13.20
2011,07,30,12,42,9.30
2011,07,30,12,43,8.40
2011,07,30,12,44,13.40
2011,07,30,12,45,12.50
2011,07,30,12,46,8.70
2011,07,30,12,47,7.70
2011,07,30,12,48,8.00
2011,07,30,12,49,8.50
2011,07,30,12,50,10.50
2011,07,30,12,51,13.40
2011,07,30,12,52,10.00
2011,07,30,12,53,11.30
2011,07,30,12,54,14.40
2011,07,30,12,55,12.60
2011,07,30,12,56,13.30
2011,07,30,12,57,7.70
2011,07,30,12,58,9.00
2011,07,30,12,59,17.80
2011,07,30,13,00,10.30
2011,07,30,13,01,9.00
2011,07,30,13,02,7.30
2011,07,30,13,03,11.50
2011,07,30,13,04,11.60
2011,07,30,13,05,8.30
2011,07,30,13,06,8.90
2011,07,30,13,07,7.40
2011,07,30,13,08,8.80
2011,07,30,13,09,5.60
2011,07,30,13,10,9.40
2011,07,30,13,11,9.60
2011,07,30,13,12,11.40
2011,07,30,13,13,11.70
2011,07,30,13,14,10.70
2011,07,30,13,15,10.00
2011,07,30,13,16,7.60
2011,07,30,13,17,8.30
2011,07,30,13,18,6.10
2011,07,30,13,19,5.60
2011,07,30,13,20,11.90
2011,07,30,13,21,11.30
2011,07,30,13,22,9.40
2011,07,30,13,23,12.70
2011,07,30,13,24,16.20
2011,07,30,13,25,7.50
2011,07,30,13,26,10.80
2011,07,30,13,27,10.40
2011,07,30,13,28,7.50
2011,07,30,13,29,5.40
2011,07,30,13,30,13.10
2011,07,30,13,31,8.80
2011,07,30,13,32,10.70
2011,07,30,13,33,11.80
2011,07,30,13,34,13.00
2011,07,30,13,35,14.80
2011,07,30,13,36,12.80
2011,07,30,13,37,11.50
2011,07,30,13,38,13.90
2011,07,30,13,39,12.30
2011,07,30,13,40,10.90
2011,07,30,13,41,9.50
2011,07,30,13,42,16.10
2011,07,30,13,43,11.90
2011,07,30,13,44,13.20
2011,07,30,13,45,18.70
2011,07,30,13,46,10.50
2011,07,30,13,47,28.10
2011,07,30,13,48,16.40
2011,07,30,13,49,13.20
2011,07,30,13,50,14.80
2011,07,30,13,51,6.70
2011,07,30,13,52,15.90
2011,07,30,13,53,10.50
2011,07,30,13,54,7.20
2011,07,30,13,55,8.80
2011,07,30,13,56,12.50
2011,07,30,13,57,10.60
2011,07,30,13,58,7.70
2011,07,30,13,59,7.70
2011,07,30,14,00,5.70
2011,07,30,14,01,13.90
2011,07,30,14,02,11.70
2011,07,30,14,03,8.10
2011,07,30,14,04,7.00
2011,07,30,14,05,7.30
2011,07,30,14,06,6.30
2011,07,30,14,07,12.40
2011,07,30,14,08,13.60
2011,07,30,14,09,13.50
2011,07,30,14,10,10.50
2011,07,30,14,11,4.80
2011,07,30,14,12,9.20
2011,07,30,14,13,7.60
2011,07,30,14,14,7.40
2011,07,30,14,15,5.20
2011,07,30,14,16,8.50
2011,07,30,14,17,13.30
2011,07,30,14,18,10.30
2011,07,30,14,19,12.80
2011,07,30,14,20,10.30
2011,07,30,14,21,8.10
2011,07,30,14,22,7.70
2011,07,30,14,23,7.60
2011,07,30,14,24,17.60
2011,07,30,14,25,8.40
2011,07,30,14,26,10.90
2011,07,30,14,27,12.30
2011,07,30,14,28,13.70
2011,07,30,14,29,14.30
2011,07,30,14,30,12.30
2011,07,30,14,31,3.60
2011,07,30,14,32,12.10
2011,07,30,14,33,15.20
2011,07,30,14,34,16.00
2011,07,30,14,35,17.20
2011,07,30,14,36,11.60
2011,07,30,14,37,12.30
2011,07,30,14,38,14.60
2011,07,30,14,39,13.00
2011,07,30,14,40,20.80
2011,07,30,14,41,15.60
2011,07,30,14,42,13.90
2011,07,30,14,43,11.70
2011,07,30,14,44,11.00
2011,07,30,14,45,9.10
2011,07,30,14,46,6.60
2011,07,30,14,47,0.20
2011,07,30,14,48,9.40
2011,07,30,14,49,9.40
2011,07,30,14,50,10.10
2011,07,30,14,51,11.80
2011,07,30,14,52,13.40
2011,07,30,14,53,13.80
2011,07,30,14,54,9.20
2011,07,30,14,55,9.50
2011,07,30,14,56,13.40
2011,07,30,14,57,13.30
2011,07,30,14,58,6.40
2011,07,30,14,59,8.70
2011,07,30,15,00,10.30
2011,07,30,15,01,9.00
2011,07,30,15,02,8.30
2011,07,30,15,03,3.70
2011,07,30,15,04,6.00
2011,07,30,15,05,1.50
2011,07,30,15,06,3.40
2011,07,30,15,07,3.30
2011,07,30,15,08,8.40
2011,07,30,15,09,6.70
2011,07,30,15,10,8.10
2011,07,30,15,11,9.10
2011,07,30,15,12,6.20
2011,07,30,15,13,3.00
2011,07,30,15,14,2.40
2011,07,30,15,15,9.70
2011,07,30,15,16,13.80
2011,07,30,15,17,6.70
2011,07,30,15,18,9.20
2011,07,30,15,19,4.40
2011,07,30,15,20,8.70
2011,07,30,15,21,5.50
2011,07,30,15,22,4.90
2011,07,30,15,23,8.50
2011,07,30,15,24,7.30
2011,07,30,15,25,13.60
2011,07,30,15,26,10.30
2011,07,30,15,27,13.30
2011,07,30,15,28,10.10
2011,07,30,15,29,8.40
2011,07,30,15,30,9.40
2011,07,30,15,31,6.80
2011,07,30,15,32,14.30
2011,07,30,15,33,13.60
2011,07,30,15,34,10.80
2011,07,30,15,35,6.60
2011,07,30,15,36,12.40
2011,07,30,15,37,12.80
2011,07,30,15,38,14.40
2011,07,30,15,39,11.20
2011,07,30,15,40,15.00
2011,07,30,15,41,8.90
2011,07,30,15,42,9.30
2011,07,30,15,43,9.90
2011,07,30,15,44,11.90
2011,07,30,15,45,12.20
2011,07,30,15,46,6.60
2011,07,30,15,47,8.00
2011,07,30,15,48,8.90
2011,07,30,15,49,11.30
2011,07,30,15,50,10.00
2011,07,30,15,51,7.10
2011,07,30,15,52,9.50
2011,07,30,15,53,6.40
2011,07,30,15,54,8.90
2011,07,30,15,55,14.10
2011,07,30,15,56,14.80
2011,07,30,15,57,14.20
2011,07,30,15,58,7.80
2011,07,30,15,59,17.60
2011,07,30,16,00,9.60
2011,07,30,16,01,14.30
2011,07,30,16,02,15.40
2011,07,30,16,03,9.60
2011,07,30,16,04,7.10
2011,07,30,16,05,8.00
2011,07,30,16,06,8.10
2011,07,30,16,07,13.70
2011,07,30,16,08,17.80
2011,07,30,16,09,12.20
2011,07,30,16,10,7.50
2011,07,30,16,11,15.80
2011,07,30,16,12,16.80
2011,07,30,16,13,18.00
2011,07,30,16,14,18.60
2011,07,30,16,15,11.20
2011,07,30,16,16,9.30
2011,07,30,16,17,4.90
2011,07,30,16,18,5.60
2011,07,30,16,19,11.70
2011,07,30,16,20,8.70
2011,07,30,16,21,13.00
2011,07,30,16,22,10.40
2011,07,30,16,23,2.30
2011,07,30,16,24,9.50
2011,07,30,16,25,6.90
2011,07,30,16,26,8.40
2011,07,30,16,27,12.00
2011,07,30,16,28,10.50
2011,07,30,16,29,10.50
2011,07,30,16,30,10.10
2011,07,30,16,31,10.40
2011,07,30,16,32,6.10
2011,07,30,16,33,13.10
2011,07,30,16,34,15.90
2011,07,30,16,35,14.90
2011,07,30,16,36,4.40
2011,07,30,16,37,2.10
2011,07,30,16,38,0.70
2011,07,30,16,39,6.50
2011,07,30,16,40,17.90
2011,07,30,16,41,13.20
2011,07,30,16,42,10.70
2011,07,30,16,43,4.10
2011,07,30,16,44,5.30
2011,07,30,16,45,6.70
2011,07,30,16,46,3.10
2011,07,30,16,47,7.70
2011,07,30,16,48,10.00
2011,07,30,16,49,11.60
2011,07,30,16,50,20.50
2011,07,30,16,51,18.10
2011,07,30,16,52,14.80
2011,07,30,16,53,8.00
2011,07,30,16,54,3.50
2011,07,30,16,55,3.50
2011,07,30,16,56,1.00
2011,07,30,16,57,6.70
2011,07,30,16,58,1.40
2011,07,30,16,59,15.10
2011,07,30,17,00,13.10
2011,07,30,17,01,15.90
2011,07,30,17,02,9.70
2011,07,30,17,03,13.60
2011,07,30,17,04,4.40
2011,07,30,17,05,13.00
2011,07,30,17,06,6.00
2011,07,30,17,07,11.90
2011,07,30,17,08,13.40
2011,07,30,17,09,7.90
2011,07,30,17,10,8.00
2011,07,30,17,11,6.40
2011,07,30,17,12,10.10
2011,07,30,17,13,14.80
2011,07,30,17,14,11.00
2011,07,30,17,15,9.00
2011,07,30,17,16,11.40
2011,07,30,17,17,5.80
2011,07,30,17,18,8.30
2011,07,30,17,19,15.20
2011,07,30,17,20,10.70
2011,07,30,17,21,7.20
2011,07,30,17,22,7.70
2011,07,30,17,23,6.10
2011,07,30,17,24,7.40
2011,07,30,17,25,7.70
2011,07,30,17,26,9.70
2011,07,30,17,27,7.60
2011,07,30,17,28,6.30
2011,07,30,17,29,10.80
2011,07,30,17,30,15.30
2011,07,30,17,31,19.70
2011,07,30,17,32,8.10
2011,07,30,17,33,15.10
2011,07,30,17,34,8.10
2011,07,30,17,35,1.60
2011,07,30,17,36,6.00
2011,07,30,17,37,12.70
2011,07,30,17,38,16.40
2011,07,30,17,39,11.80
2011,07,30,17,40,11.30
2011,07,30,17,41,14.90
2011,07,30,17,42,11.60
2011,07,30,17,43,11.80
2011,07,30,17,44,6.50
2011,07,30,17,45,11.30
2011,07,30,17,46,10.20
2011,07,30,17,47,6.00
2011,07,30,17,48,14.60
2011,07,30,17,49,11.00
2011,07,30,17,50,9.40
2011,07,30,17,51,9.30
2011,07,30,17,52,6.40
2011,07,30,17,53,15.20